QPF
0.00 0.00 0.00 0.00 0.00 0.00 0.00 0.00 0.00 0.00 0.00 0.00 0.01 0.01 0.00 0.00 0.00 0.00 0.00 0.03 0.04 0.05 0.02 0.00 0.00 0.00 0.00 0.00 0.00 0.00 0.00 0.00
0.00 0.00 0.00 0.00 0.00 0.00 0.00 0.00 0.00 0.00 0.00 0.00 0.00 0.00 0.00 0.00 0.01 0.01 0.01 0.03 0.05 0.07 0.07 0.01 0.00 0.00 0.00 0.00 0.00 0.00 0.00 0.00
0.00 0.00 0.00 0.00 0.00 0.00 0.00 0.00 0.00 0.00 0.00 0.00 0.00 0.00 0.00 0.00 0.02 0.03 0.03 0.03 0.03 0.06 0.08 0.05 0.01 0.00 0.00 0.00 0.00 0.00 0.00 0.00
0.00 0.00 0.00 0.00 0.00 0.00 0.00 0.01 0.00 0.00 0.00 0.00 0.00 0.00 0.00 0.00 0.01 0.04 0.05 0.03 0.04 0.07 0.06 0.04 0.03 0.03 0.01 0.00 0.00 0.00 0.00 0.00
0.00 0.00 0.00 0.00 0.00 0.00 0.00 0.00 0.00 0.00 0.00 0.00 0.00 0.00 0.00 0.00 0.00 0.00 0.01 0.01 0.00 0.02 0.02 0.02 0.04 0.08 0.05 0.02 0.00 0.00 0.00 0.00
0.00 0.00 0.00 0.00 0.00 0.00 0.00 0.00 0.00 0.00 0.00 0.00 0.00 0.00 0.00 0.00 0.00 0.00 0.00 0.00 0.00 0.00 0.00 0.00 0.01 0.04 0.05 0.02 0.00 0.00 0.00 0.00
0.00 0.00 0.00 0.00 0.00 0.00 0.00 0.00 0.00 0.00 0.00 0.00 0.00 0.00 0.00 0.00 0.00 0.00 0.00 0.00 0.00 0.00 0.00 0.02 0.02 0.01 0.01 0.02 0.01 0.00 0.00 0.00
0.00 0.00 0.00 0.00 0.00 0.00 0.00 0.00 0.00 0.00 0.00 0.00 0.00 0.00 0.00 0.00 0.00 0.00 0.00 0.00 0.01 0.01 0.01 0.02 0.02 0.04 0.06 0.03 0.02 0.02 0.01 0.00
0.00 0.00 0.00 0.00 0.00 0.00 0.00 0.00 0.00 0.00 0.00 0.00 0.00 0.00 0.00 0.00 0.00 0.00 0.00 0.00 0.00 0.00 0.00 0.01 0.03 0.05 0.10 0.13 0.09 0.04 0.02 0.01
0.00 0.00 0.00 0.00 0.00 0.00 0.00 0.00 0.00 0.00 0.00 0.00 0.00 0.00 0.00 0.00 0.00 0.00 0.00 0.00 0.00 0.00 0.00 0.00 0.00 0.00 0.01 0.02 0.01 0.01 0.01 0.01
0.00 0.00 0.00 0.00 0.00 0.00 0.00 0.00 0.00 0.00 0.00 0.00 0.00 0.00 0.00 0.00 0.00 0.00 0.00 0.00 0.00 0.00 0.00 0.00 0.00 0.00 0.00 0.00 0.01 0.01 0.01 0.02
0.00 0.00 0.00 0.00 0.00 0.00 0.00 0.00 0.00 0.00 0.00 0.00 0.00 0.00 0.00 0.00 0.00 0.00 0.00 0.00 0.00 0.00 0.00 0.00 0.00 0.00 0.00 0.00 0.00 0.02 0.02 0.03
0.00 0.00 0.00 0.00 0.00 0.00 0.00 0.00 0.00 0.00 0.00 0.00 0.00 0.00 0.00 0.00 0.00 0.00 0.00 0.00 0.00 0.00 0.00 0.00 0.00 0.00 0.00 0.00 0.00 0.00 0.01 0.04
0.00 0.00 0.00 0.00 0.00 0.00 0.00 0.00 0.00 0.00 0.00 0.00 0.00 0.00 0.00 0.00 0.00 0.00 0.00 0.00 0.00 0.00 0.00 0.00 0.00 0.00 0.00 0.00 0.00 0.00 0.00 0.01
0.00 0.00 0.00 0.00 0.00 0.00 0.00 0.00 0.00 0.00 0.00 0.00 0.00 0.00 0.00 0.00 0.00 0.00 0.00 0.00 0.00 0.00 0.00 0.00 0.00 0.00 0.00 0.00 0.00 0.00 0.00 0.00
0.00 0.00 0.00 0.00 0.00 0.00 0.00 0.00 0.00 0.00 0.00 0.00 0.00 0.00 0.00 0.00 0.00 0.00 0.00 0.00 0.00 0.00 0.00 0.00 0.00 0.00 0.00 0.00 0.00 0.00 0.00 0.00
0.00 0.00 0.00 0.00 0.00 0.00 0.00 0.00 0.00 0.00 0.00 0.00 0.00 0.00 0.00 0.00 0.00 0.00 0.00 0.00 0.00 0.00 0.00 0.00 0.00 0.00 0.00 0.00 0.00 0.00 0.00 0.00
0.00 0.00 0.00 0.00 0.00 0.00 0.00 0.00 0.00 0.00 0.00 0.00 0.00 0.00 0.00 0.00 0.00 0.00 0.00 0.00 0.00 0.00 0.00 0.00 0.00 0.00 0.00 0.00 0.00 0.00 0.00 0.00
0.00 0.00 0.00 0.00 0.00 0.00 0.00 0.00 0.00 0.00 0.00 0.00 0.00 0.00 0.00 0.00 0.00 0.00 0.00 0.00 0.00 0.00 0.00 0.00 0.00 0.00 0.00 0.00 0.00 0.00 0.00 0.00
0.00 0.00 0.00 0.00 0.00 0.00 0.00 0.00 0.00 0.00 0.00 0.00 0.00 0.00 0.00 0.00 0.00 0.00 0.00 0.00 0.00 0.00 0.00 0.00 0.00 0.00 0.00 0.00 0.00 0.00 0.00 0.00
MSLP
1013.66 1013.68 1014.52 1015.08 1015.43 1015.54 1015.53 1015.51 1015.55 1015.56 1015.65 1015.65 1015.74 1015.72 1015.52 1015.57 1015.97 1016.55 1016.74 1016.48 1017.24 1016.88 1016.58 1016.89 1016.90 1017.04 1017.17 1017.06 1017.14 1017.11 1016.49 1015.94
1013.56 1013.56 1013.70 1014.22 1014.38 1015.17 1015.30 1015.33 1015.48 1015.69 1015.91 1015.95 1015.94 1015.85 1015.73 1015.74 1015.86 1016.12 1016.49 1016.84 1017.14 1017.33 1017.16 1017.08 1016.94 1017.11 1017.30 1017.36 1017.47 1017.27 1016.32 1015.74
1014.10 1013.76 1014.16 1014.33 1014.06 1014.47 1014.96 1014.97 1015.14 1015.41 1015.67 1015.87 1015.78 1015.20 1015.90 1015.43 1015.54 1015.45 1015.72 1016.21 1016.62 1017.16 1017.61 1017.71 1017.20 1017.24 1017.31 1017.71 1017.54 1016.43 1015.89 1015.93
1014.33 1014.66 1014.50 1014.42 1014.03 1014.27 1014.23 1014.64 1014.71 1014.75 1014.89 1015.25 1015.12 1015.48 1015.66 1015.96 1016.40 1016.25 1015.87 1015.86 1016.17 1016.15 1017.33 1017.51 1017.75 1016.91 1017.19 1017.53 1017.01 1015.90 1016.00 1015.60
1014.72 1014.92 1014.87 1014.51 1014.26 1014.08 1014.56 1015.24 1015.08 1015.05 1015.10 1015.09 1015.58 1015.80 1015.91 1015.80 1016.26 1016.32 1016.51 1016.56 1016.59 1016.70 1016.91 1017.17 1018.38 1018.40 1017.49 1017.02 1016.22 1016.20 1015.97 1015.56
1014.93 1015.09 1015.04 1014.80 1014.25 1014.19 1014.52 1014.76 1014.98 1014.86 1015.17 1015.28 1015.39 1015.41 1015.78 1015.76 1015.95 1016.10 1016.33 1016.40 1016.49 1016.23 1016.56 1017.13 1018.26 1018.06 1017.18 1017.55 1016.93 1016.82 1016.34 1015.86
1015.10 1015.38 1015.46 1015.40 1015.22 1015.34 1015.51 1015.59 1015.60 1015.65 1015.46 1015.59 1015.16 1015.10 1015.47 1015.52 1015.80 1015.84 1015.92 1016.00 1016.19 1016.15 1016.52 1016.48 1017.03 1016.51 1016.37 1016.86 1016.78 1016.09 1015.85 1015.68
1015.13 1015.28 1015.42 1015.47 1015.52 1015.88 1016.04 1016.05 1016.10 1015.95 1015.98 1016.00 1015.85 1015.56 1015.67 1015.62 1015.86 1015.98 1015.97 1016.02 1015.95 1016.03 1015.97 1016.01 1015.79 1015.60 1016.08 1015.83 1015.65 1015.57 1015.00 1014.65
1014.75 1014.95 1014.96 1015.04 1015.31 1015.38 1015.40 1015.82 1015.88 1016.03 1016.24 1016.43 1016.32 1016.09 1016.20 1016.03 1015.90 1015.94 1016.06 1016.39 1016.55 1016.51 1016.32 1016.17 1015.72 1015.45 1015.32 1015.03 1014.63 1014.58 1014.39 1014.12
1014.31 1014.60 1014.86 1015.02 1015.06 1015.26 1015.20 1015.39 1015.49 1015.60 1015.83 1015.99 1016.18 1016.17 1016.01 1015.89 1015.93 1016.12 1016.33 1016.04 1016.14 1016.29 1016.37 1016.12 1015.73 1015.45 1015.23 1014.88 1014.29 1014.13 1013.79 1013.59
1014.68 1014.97 1015.10 1015.30 1015.43 1015.20 1015.65 1015.88 1015.34 1015.48 1015.70 1015.85 1016.16 1016.12 1016.04 1015.72 1015.78 1016.03 1016.26 1016.01 1016.00 1015.98 1015.76 1015.60 1015.52 1015.13 1014.92 1014.89 1014.34 1014.00 1013.47 1013.11
1014.46 1014.81 1014.98 1015.33 1015.35 1015.44 1015.34 1015.51 1015.62 1015.68 1015.55 1015.56 1016.01 1016.03 1016.02 1015.80 1015.66 1015.99 1016.12 1015.99 1016.01 1016.08 1016.01 1015.68 1015.51 1015.28 1015.09 1014.45 1013.85 1013.69 1013.24 1012.82
1014.37 1014.51 1014.78 1015.17 1015.16 1015.21 1015.26 1015.26 1015.39 1015.39 1015.30 1015.69 1015.92 1015.60 1015.85 1015.89 1015.60 1015.63 1015.75 1015.78 1016.01 1016.20 1016.07 1015.91 1015.47 1015.23 1015.21 1014.46 1013.66 1012.88 1012.39 1011.95
1013.62 1013.86 1014.20 1014.78 1014.58 1014.59 1014.54 1014.55 1014.81 1015.05 1015.07 1015.55 1015.92 1015.78 1015.77 1015.68 1015.66 1015.75 1015.79 1015.85 1015.79 1015.85 1016.08 1015.94 1015.52 1015.17 1014.98 1014.66 1013.36 1012.46 1012.02 1011.87
1013.27 1013.41 1013.66 1014.10 1014.29 1014.19 1014.53 1014.81 1014.84 1014.71 1014.83 1015.06 1015.09 1015.54 1015.49 1015.44 1015.64 1015.73 1015.85 1015.99 1015.83 1015.64 1015.69 1015.61 1015.16 1014.98 1014.71 1014.17 1013.45 1012.60 1012.30 1011.98
1012.94 1013.08 1013.24 1013.47 1013.91 1014.05 1014.04 1014.05 1013.78 1013.58 1013.43 1013.81 1014.17 1014.54 1015.09 1015.38 1015.41 1015.53 1015.68 1015.86 1015.85 1015.71 1015.38 1015.22 1015.15 1014.69 1014.27 1013.92 1013.57 1013.18 1012.74 1011.94
1012.38 1012.63 1012.77 1012.83 1013.14 1013.75 1013.69 1013.69 1013.77 1013.69 1013.89 1014.11 1014.67 1014.83 1014.98 1015.20 1015.28 1015.32 1015.44 1015.50 1015.53 1015.55 1015.51 1015.27 1014.95 1014.47 1014.03 1013.70 1013.40 1012.99 1012.76 1012.03
1012.18 1012.30 1012.33 1012.49 1012.72 1012.99 1013.42 1013.47 1013.47 1013.55 1013.75 1014.18 1014.59 1014.75 1014.82 1014.84 1015.08 1015.31 1015.54 1015.62 1015.42 1015.44 1015.30 1015.13 1014.85 1014.44 1013.95 1013.66 1013.26 1012.86 1012.33 1011.83
1011.74 1011.92 1011.78 1011.79 1012.01 1012.48 1012.96 1013.39 1013.68 1013.74 1013.91 1014.20 1014.66 1015.10 1015.22 1015.31 1015.42 1015.66 1015.73 1015.66 1015.51 1015.26 1015.27 1015.12 1014.70 1014.23 1013.80 1013.32 1012.86 1012.30 1012.10 1011.61
1010.79 1010.78 1010.90 1011.14 1011.31 1011.84 1012.49 1013.02 1013.51 1013.82 1014.08 1014.55 1015.03 1015.15 1015.34 1015.54 1015.71 1015.73 1015.69 1015.52 1015.31 1015.08 1014.83 1014.56 1014.00 1013.51 1013.03 1012.61 1012.22 1011.76 1011.57 1011.03
Thickness
5675 5674 5668 5663 5659 5659 5659 5657 5655 5653 5652 5650 5648 5648 5647 5647 5646 5637 5631 5635 5633 5635 5638 5634 5636 5637 5639 5644 5645 5649 5653 5657
5671 5670 5668 5663 5661 5656 5654 5653 5649 5646 5642 5641 5640 5640 5641 5638 5639 5635 5629 5623 5624 5623 5623 5624 5627 5628 5630 5633 5634 5636 5646 5652
5662 5663 5659 5657 5658 5654 5651 5650 5647 5644 5639 5635 5635 5637 5631 5634 5635 5634 5629 5623 5619 5614 5611 5609 5615 5617 5620 5619 5624 5634 5640 5641
5655 5651 5651 5651 5652 5650 5649 5645 5644 5642 5640 5635 5633 5629 5625 5619 5615 5617 5619 5616 5613 5613 5604 5602 5600 5606 5607 5608 5614 5628 5630 5634
5648 5645 5643 5645 5646 5646 5642 5635 5635 5633 5632 5631 5626 5622 5619 5617 5609 5604 5602 5602 5598 5596 5593 5588 5582 5583 5594 5598 5607 5612 5620 5626
5643 5641 5639 5639 5641 5641 5637 5634 5632 5632 5628 5625 5623 5621 5616 5614 5610 5604 5598 5596 5593 5592 5584 5580 5574 5575 5588 5580 5590 5596 5605 5614
5639 5636 5633 5631 5631 5629 5627 5624 5623 5621 5621 5618 5620 5618 5613 5609 5606 5603 5599 5595 5590 5584 5579 5579 5573 5584 5584 5584 5583 5590 5597 5604
5635 5633 5630 5627 5626 5621 5618 5616 5613 5612 5610 5608 5607 5606 5603 5600 5595 5592 5590 5587 5584 5580 5577 5575 5577 5578 5576 5582 5583 5585 5591 5599
5636 5633 5632 5629 5624 5621 5617 5611 5607 5603 5599 5595 5594 5594 5590 5589 5587 5585 5580 5574 5571 5570 5571 5571 5574 5573 5573 5573 5578 5582 5586 5591
5638 5634 5629 5625 5621 5615 5611 5607 5603 5600 5594 5590 5585 5583 5582 5581 5578 5573 5570 5570 5567 5565 5562 5564 5567 5570 5571 5570 5573 5574 5579 5584
5627 5624 5620 5616 5611 5607 5600 5594 5595 5591 5585 5581 5575 5573 5571 5571 5569 5565 5560 5560 5559 5557 5558 5558 5558 5560 5563 5563 5568 5571 5574 5579
5625 5620 5616 5609 5605 5599 5596 5589 5582 5578 5574 5571 5565 5561 5558 5556 5556 5553 5548 5547 5545 5544 5543 5545 5546 5547 5550 5555 5562 5564 5569 5573
5618 5614 5608 5601 5596 5590 5585 5580 5575 5570 5566 5560 5553 5552 5548 5543 5540 5538 5536 5534 5531 5527 5527 5527 5531 5533 5533 5540 5550 5560 5564 5571
5619 5613 5606 5598 5594 5589 5584 5578 5569 5562 5555 5547 5538 5533 5527 5527 5525 5520 5517 5516 5515 5513 5511 5511 5515 5519 5521 5523 5535 5545 5550 5555
5615 5609 5603 5595 5588 5583 5575 5566 5559 5553 5545 5536 5531 5522 5516 5511 5506 5502 5500 5496 5496 5496 5496 5496 5500 5503 5506 5511 5516 5526 5530 5537
5610 5603 5596 5589 5581 5573 5565 5558 5553 5548 5542 5533 5523 5513 5502 5495 5488 5481 5478 5477 5474 5475 5477 5479 5481 5486 5490 5493 5498 5503 5506 5517
5605 5597 5590 5583 5574 5564 5554 5547 5538 5531 5521 5511 5501 5492 5485 5478 5472 5466 5463 5459 5458 5457 5457 5459 5461 5466 5470 5474 5478 5483 5487 5496
5595 5588 5581 5573 5563 5554 5542 5532 5525 5514 5504 5494 5485 5477 5470 5464 5459 5453 5446 5441 5440 5439 5439 5441 5443 5447 5451 5453 5457 5462 5469 5474
5585 5577 5571 5564 5555 5543 5531 5518 5506 5497 5487 5477 5467 5457 5450 5444 5438 5432 5428 5424 5422 5422 5420 5421 5425 5429 5432 5437 5441 5447 5447 5453
5581 5573 5564 5554 5545 5532 5519 5504 5491 5479 5469 5459 5447 5439 5432 5424 5417 5413 5409 5407 5406 5405 5406 5407 5413 5417 5422 5425 5427 5432 5431 5436